{"data":{"norad_id":57229,"intl_designator":"2023-094M","name":"STARLINK-6233","alt_names":[],"object_type":"PAYLOAD","status":"ACTIVE","operator":null,"country":"US","launch_date":"2023-07-07","launch_site_code":"AFWTR","launch_vehicle":null,"mission":null,"orbit_class":"UNKNOWN","rcs_meters":null,"size_class":null,"mass_kg":null,"dimensions":null,"purposes":["comms"],"wikipedia_slug":null,"has_3d_model":false,"image_url":null,"decayed_at":null,"tle_current":{"epoch":"2026-09-20T08:29:07.362816Z","epoch_age_seconds":136938,"freshness":"FRESH","line1":"1 57229U 23094M   26263.35355744 -.00000399  00000+0 -49622-5 0  9998","line2":"2 57229  43.0055  11.6337 0001699 274.2945  85.7712 15.27573696176884","mean_motion":15.27573696,"eccentricity":0.0001699,"inclination_deg":43.0055,"raan_deg":11.6337,"arg_perigee_deg":274.2945,"mean_anomaly_deg":85.7712,"bstar":-4.9622e-6,"rev_number":17688,"period_min":94.267137734218,"perigee_km":481.90225382359,"apogee_km":484.23369127326,"semimajor_km":6861.2049725484,"source":"CELESTRAK","updated_at":"2026-09-21T09:00:33.585931Z"}}}